Regional Weather Roundup
Issued by NWS Newport/Morehead, NC

Home | Current Version | Previous Version | Text Only | Print | Product List | Glossary On
Versions: 1 2 3 4 5 6 7 8 9 10 11 12 13 14 15 16 17 18 19 20 21 22 23 24 25 26 27 28 29 30 31 32 33 34 35 36 37 38 39 40 41 42 43 44 45 46 47 48 49 50
573
ASUS42 KMHX 282025
RWRMHX
WEATHER ROUNDUP FOR EASTERN NORTH CAROLINA
NATIONAL WEATHER SERVICE NEWPORT/MOREHEAD CITY NC
400 PM EDT SAT MAY 28 2016

NOTE: "FAIR" INDICATES FEW OR NO CLOUDS BELOW 12,000 FEET
WITH NO SIGNIFICANT WEATHER AND/OR OBSTRUCTIONS TO VISIBILITY

NCZ015>017-031-032-045>047-102-103-282100-
NORTH COAST

CITY           SKY/WX    TMP DP  RH WIND       PRES   REMARKS
EDENTON        SUNNY     83  70  65 E12       30.16F
ELIZABETH CITY SUNNY     82  64  54 SE14      30.17F
KITTY HAWK     CLEAR     82  67  60 E5        30.17S
MANTEO         NOT AVBL

$$

NCZ045>047-081-094-103-104-282100-
CENTRAL COAST

CITY           SKY/WX    TMP DP  RH WIND       PRES   REMARKS
FRISCO         PTSUNNY   81  69  67 NE7       30.15F

$$

NCZ095-097-098-100-101-282100-
SOUTHERN COAST

CITY           SKY/WX    TMP DP  RH WIND       PRES   REMARKS
BEAUFORT       MOSUNNY   82  68  62 NE8       30.13F
CEDAR ISLAND   NOT AVBL
JACKSONVILLE   CLOUDY    83  67  58 SE13      30.12F
PINEY ISLAND   CLOUDY   N/A N/A N/A NE14      30.14F
WILMINGTON     PTSUNNY   79  68  69 E17G25    30.12F


$$

NCZ011>013-027>030-043-044-078>080-089-090>093-098-282100-
COASTAL PLAIN

CITY           SKY/WX    TMP DP  RH WIND       PRES   REMARKS
AHOSKIE        SUNNY     84  60  45 SE6       30.14F
CLINTON        PTSUNNY   82  69  62 E6        30.13S
ELIZABETHTOWN  CLOUDY    78  69  73 E9        30.12S
GOLDSBORO      MOSUNNY  N/A N/A N/A E10         N/A
GREENVILLE     MOSUNNY   86  66  51 SE7       30.14F
HAVELOCK       PTSUNNY   82  66  58 NE13      30.14F
KENANSVILLE    CLOUDY    78  65  64 CALM      30.14F
KINSTON        MOSUNNY   84  63  48 E10       30.14F
NEW BERN       SUNNY     84  63  49 E10       30.14F
RICHLANDS      PTSUNNY   82  70  66 E9        30.13F
ROCKY MOUNT    SUNNY     87  61  41 VRB6      30.13F
WASHINGTON     CLOUDY    82  66  58 SE12      30.13F
WHITEVILLE     CLOUDY    80  66  61 E9        30.11S

$$

AMZ130-135-150-152-154-156-158-170-250-252-270-ANZ085-086-088-633-658-670-282100-
MARINE OBSERVATIONS

STATION/POSITION TIME  TEMP    WIND        PRES    WAVE   SWELL
                       AIR SEA DIR/SP/G            HT/PER HT/PER
                 (UTC) (F)     (DEG/KT/KT) (MB)    (FT/S) (FT/S)
CHESAPEAKE LIGHT 2000   71     130/ 12/ 13 1022.3
64 E VA BEACH    1950   70 65   30/  6/  6 1021.9    4/ 9   3/ 9
DUCK             2000   72 64   70/  8/  8 1021.3
2 E DUCK         1911      69                N/A     2/ 7
OREGON INLET     2000   74 75   30/  8/ 11 1021.5
13E OREGON INLT  2000      72                N/A     3/ 8   3/ 8
HATTERAS CG      2000   79 75   80/  7/ 10 1020.6
DIAMOND BUOY     1950   78 78  110/ 10/ 12 1020.9    5/ 8   5/ 8
CAPE LOOKOUT     2000   76      40/ 12/ 14 1020.1
BEAUFORT LAB     2000   80 74   60/  8/ 13 1019.6
30 SE NEW RVR IN 1925      75                N/A     6/ 8
27 SE WRIGHTSVLE 2008   77 74   70/ 10/ 16 1019.8
5 SE WRIGHTSVLE  2008   76 75   80/ 12/ 17 1020.2
225 S CAPE HAT   1950   76 76  100/ 16/ 19 1017.9    4/ 6   2/ 7
41 SE CHARLESTON 1950   76 76   40/ 19/ 25 1015.7    8/ 8   5/ 8

$$




USA.gov is the U.S. government's official web portal to all federal, state and local government web resources and services.